GW5563 Weather Reports


time (UTC)temp
C
wind
direction
speed
KPH
gust
KPH
rain 1hr
cm
rain 24hr
cm
rain mn
cm
humidity
%
barometer
mb
20260906225647 18 2 9.7 11.3 0.00 0.00 0.00 76 1014.0
20260906225143 18 16 12.9 16.1 0.00 0.00 0.00 76 1013.8
20260906224638 17 347 8.0 11.3 0.00 0.00 0.00 78 1013.6
20260906224135 17 31 16.1 17.7 0.00 0.00 0.00 78 1014.0
20260906223631 17 314 9.7 11.3 0.00 0.00 0.00 79 1014.1
20260906223130 17 353 11.3 12.9 0.00 0.00 0.00 79 1013.8
20260906222629 17 345 16.1 17.7 0.00 0.00 0.00 78 1013.9
20260906222128 17 6 16.1 17.7 0.00 0.00 0.00 78 1014.1
20260906221627 17 24 12.9 14.5 0.00 0.00 0.00 78 1013.9
20260906221127 17 299 14.5 17.7 0.00 0.00 0.00 79 1014.0
20260906220622 17 30 14.5 17.7 0.00 0.00 0.00 80 1014.0
20260906220117 16 356 9.7 12.9 0.00 0.00 0.00 81 1014.0
20260906215616 16 34 11.3 14.5 0.00 0.00 0.00 81 1014.0
20260906215115 16 34 8.0 12.9 0.00 0.00 0.00 81 1014.0
20260906214614 16 16 17.7 17.7 0.00 0.00 0.00 81 1014.2
20260906214109 16 0 17.7 20.9 0.00 0.00 0.00 80 1014.0
20260906213608 16 22 19.3 20.9 0.00 0.00 0.00 81 1014.2
20260906213103 16 114 6.4 9.7 0.00 0.00 0.00 81 1014.2
20260906212600 16 17 9.7 12.9 0.00 0.00 0.00 81 1014.2
20260906212056 16 38 14.5 17.7 0.00 0.00 0.00 82 1014.1
20260906211555 16 5 12.9 14.5 0.00 0.00 0.00 81 1014.2
20260906211051 16 5 14.5 16.1 0.00 0.00 0.00 82 1014.2
20260906210546 16 24 17.7 20.9 0.00 0.00 0.00 82 1014.5
20260906210041 16 356 14.5 17.7 0.00 0.00 0.00 81 1014.4
20260906205537 16 31 12.9 14.5 0.00 0.00 0.00 81 1014.4
20260906205033 16 12 19.3 25.7 0.00 0.00 0.00 80 1014.4
20260906204532 16 10 19.3 22.5 0.00 0.00 0.00 79 1014.1
20260906204032 16 11 24.1 29.0 0.00 0.00 0.00 79 1014.2
20260906203532 16 29 19.3 22.5 0.00 0.00 0.00 79 1014.4
20260906203027 16 343 14.5 20.9 0.00 0.00 0.00 81 1014.5
20260906202523 16 8 16.1 17.7 0.00 0.00 0.00 80 1014.1
20260906202018 16 15 22.5 27.4 0.00 0.00 0.00 79 1014.4
20260906201518 16 8 17.7 24.1 0.00 0.00 0.00 79 1014.1
20260906201018 16 14 17.7 22.5 0.00 0.00 0.00 79 1014.1
20260906200514 17 8 14.5 24.1 0.00 0.00 0.00 79 1014.4
20260906200009 17 13 19.3 25.7 0.00 0.00 0.00 78 1014.1
20260906195505 16 29 17.7 24.1 0.00 0.00 0.00 79 1014.4
20260906195001 17 58 19.3 24.1 0.00 0.00 0.00 78 1014.4
20260906194456 16 20 22.5 27.4 0.00 0.00 0.00 79 1014.1
20260906193952 17 27 16.1 20.9 0.00 0.00 0.00 78 1014.2
20260906193447 16 357 20.9 24.1 0.00 0.00 0.00 78 1014.2
20260906192942 16 321 19.3 22.5 0.00 0.00 0.00 77 1014.4
20260906192437 16 28 16.1 25.7 0.00 0.00 0.00 78 1014.5
20260906191936 16 81 14.5 17.7 0.00 0.00 0.00 77 1014.2
20260906191431 16 46 17.7 25.7 0.00 0.00 0.00 77 1014.1
20260906190930 16 49 17.7 22.5 0.00 0.00 0.00 77 1014.0
20260906190429 16 13 22.5 25.7 0.00 0.00 0.00 76 1014.2
20260906185924 16 28 14.5 17.7 0.00 0.00 0.00 78 1014.2
20260906185424 16 24 25.7 29.0 0.00 0.00 0.00 78 1014.4
20260906184923 15 27 24.1 29.0 0.00 0.00 0.00 78 1014.2
20260906184418 15 351 24.1 29.0 0.00 0.00 0.00 79 1014.4
20260906183914 16 12 25.7 32.2 0.00 0.00 0.00 79 1014.5
20260906183410 15 8 25.7 32.2 0.00 0.00 0.00 81 1014.2
20260906182905 15 12 29.0 33.8 0.00 0.00 0.00 79 1014.8
20260906182400 15 18 20.9 25.7 0.00 0.00 0.00 82 1014.9
20260906181855 16 1 30.6 35.4 0.00 0.00 0.00 80 1014.7
20260906181352 15 20 19.3 24.1 0.00 0.00 0.00 81 1014.7
20260906180847 14 58 22.5 27.4 0.00 0.00 0.00 82 1014.6
20260906180342 13 16 25.7 33.8 0.00 0.00 0.00 84 1015.5
20260906175839 13 19 11.3 12.9 0.00 0.00 0.00 86 1015.8
20260906175334 13 6 25.7 29.0 0.00 0.00 0.00 84 1016.1
20260906174834 13 350 29.0 32.2 0.00 0.00 0.00 85 1015.6
20260906174333 13 20 19.3 20.9 0.00 0.00 0.00 87 1016.0
20260906173828 13 358 22.5 24.1 0.00 0.00 0.00 87 1016.1
20260906173324 13 343 20.9 27.4 0.00 0.00 0.00 88 1016.1
20260906172823 13 352 20.9 24.1 0.00 0.00 0.00 88 1016.0
20260906172319 13 1 20.9 27.4 0.00 0.00 0.00 89 1016.1
20260906171813 13 36 17.7 17.7 0.00 0.00 0.00 90 1016.1
20260906171308 13 8 19.3 25.7 0.00 0.00 0.00 90 1015.9
20260906170804 13 359 17.7 22.5 0.00 0.00 0.00 89 1016.0
20260906170301 13 28 22.5 27.4 0.00 0.00 0.00 89 1016.1
20260906165756 13 355 12.9 14.5 0.00 0.00 0.00 90 1016.2
20260906165255 13 340 22.5 24.1 0.00 0.00 0.00 90 1016.2
20260906164755 13 356 20.9 24.1 0.00 0.00 0.00 91 1016.5
20260906164249 13 21 17.7 20.9 0.00 0.00 0.00 91 1016.5
20260906163746 12 38 19.3 22.5 0.00 0.00 0.00 92 1016.3
20260906163242 12 1 22.5 25.7 0.00 0.00 0.00 92 1016.5
20260906162739 13 42 16.1 17.7 0.00 0.00 0.00 92 1016.0
20260906162233 13 1 19.3 24.1 0.00 0.00 0.00 91 1016.1
20260906161733 13 359 20.9 25.7 0.00 0.00 0.00 90 1015.9
20260906161232 13 12 24.1 32.2 0.00 0.00 0.00 88 1016.2
20260906160732 14 12 19.3 24.1 0.00 0.00 0.00 86 1016.3
20260906160231 15 51 12.9 14.5 0.00 0.00 0.00 86 1016.7
20260906155729 14 74 8.0 9.7 0.00 0.00 0.00 89 1016.5
20260906155224 14 314 6.4 11.3 0.00 0.00 0.00 89 1016.7
20260906154719 13 16 8.0 9.7 0.00 0.00 0.00 91 1016.5
20260906154214 13 17 9.7 11.3 0.00 0.00 0.00 92 1016.9
20260906153712 13 41 8.0 9.7 0.00 0.00 0.00 92 1017.0
20260906153207 13 338 11.3 12.9 0.00 0.00 0.00 92 1017.0
20260906152703 13 346 12.9 14.5 0.00 0.00 0.00 92 1016.9
20260906152156 13 318 12.9 14.5 0.00 0.00 0.00 92 1017.1
20260906151651 14 333 8.0 9.7 0.00 0.00 0.00 92 1016.9
20260906151147 14 339 9.7 11.3 0.00 0.00 0.00 92 1016.8
20260906150642 14 357 9.7 12.9 0.00 0.00 0.00 93 1016.8
20260906150137 14 19 4.8 4.8 0.00 0.00 0.00 92 1016.8
20260906145636 14 71 4.8 8.0 0.00 0.00 0.00 92 1016.7
20260906145131 14 37 8.0 9.7 0.00 0.00 0.00 92 1016.6
20260906144631 14 36 11.3 12.9 0.00 0.00 0.00 93 1016.7
20260906144126 14 54 9.7 14.5 0.00 0.00 0.00 93 1016.5
20260906143626 13 27 8.0 11.3 0.00 0.00 0.00 94 1016.6
20260906143123 13 348 12.9 14.5 0.00 0.00 0.00 94 1016.7
20260906142622 13 65 9.7 11.3 0.00 0.00 0.00 94 1016.6
20260906142117 13 63 12.9 16.1 0.00 0.00 0.00 94 1016.9
20260906141616 13 69 4.8 8.0 0.00 0.00 0.00 94 1016.8
20260906141112 13 23 12.9 16.1 0.00 0.00 0.00 94 1016.9
20260906140611 13 22 11.3 16.1 0.00 0.00 0.00 95 1016.7
20260906140106 13 82 11.3 12.9 0.00 0.00 0.00 95 1016.8
20260906135603 13 38 8.0 12.9 0.00 0.00 0.00 96 1016.7
20260906135059 13 17 11.3 12.9 0.00 0.00 0.00 96 1016.9
20260906134554 13 26 9.7 12.9 0.00 0.00 0.00 96 1016.6
20260906134054 12 341 9.7 12.9 0.00 0.00 0.00 96 1016.3
20260906133550 12 10 11.3 14.5 0.00 0.00 0.00 96 1016.5
20260906133045 12 54 11.3 12.9 0.00 0.00 0.00 97 1016.2
20260906132540 12 349 12.9 14.5 0.00 0.00 0.00 97 1016.2
20260906132036 12 25 8.0 9.7 0.00 0.00 0.00 97 1016.5
20260906131531 12 12 8.0 11.3 0.00 0.00 0.00 97 1016.7
20260906131026 12 356 12.9 12.9 0.00 0.00 0.00 97 1016.6
20260906130526 12 45 9.7 11.3 0.00 0.00 0.00 97 1016.5
20260906130021 12 49 9.7 12.9 0.00 0.00 0.00 97 1016.7
20260906125518 12 39 11.3 14.5 0.00 0.00 0.00 97 1016.7
20260906125013 12 10 12.9 16.1 0.00 0.00 0.00 97 1017.1
20260906124508 12 6 9.7 11.3 0.00 0.00 0.00 97 1016.8
20260906124004 12 34 12.9 14.5 0.00 0.00 0.00 97 1016.6
20260906123502 12 45 11.3 14.5 0.00 0.00 0.00 97 1016.8
20260906123003 12 26 16.1 17.7 0.00 0.00 0.00 97 1016.7
20260906122457 12 30 12.9 17.7 0.00 0.00 0.00 97 1016.8
20260906121954 12 12 17.7 22.5 0.00 0.00 0.00 97 1016.6
20260906121449 12 13 16.1 22.5 0.00 0.00 0.00 97 1016.5
20260906120946 12 34 14.5 17.7 0.00 0.00 0.00 97 1016.8
20260906120441 12 16 16.1 17.7 0.00 0.00 0.00 97 1016.9
20260906115937 12 5 16.1 17.7 0.00 0.00 0.00 97 1016.9
20260906115432 12 14 14.5 20.9 0.00 0.00 0.00 96 1016.9
20260906114932 12 29 12.9 17.7 0.00 0.00 0.00 96 1017.1
20260906114426 12 34 14.5 16.1 0.00 0.00 0.00 96 1017.0
20260906113922 12 12 12.9 14.5 0.00 0.00 0.00 96 1017.0
20260906113420 12 10 11.3 16.1 0.00 0.00 0.00 96 1017.0
20260906112917 12 9 14.5 16.1 0.00 0.00 0.00 96 1017.2
20260906112412 12 25 14.5 14.5 0.00 0.00 0.00 96 1016.9
20260906111907 12 26 11.3 12.9 0.00 0.00 0.00 96 1016.8
20260906111407 12 20 12.9 16.1 0.00 0.00 0.00 95 1016.7
20260906110902 12 18 19.3 20.9 0.00 0.00 0.00 96 1016.6
20260906110357 12 17 16.1 20.9 0.00 0.00 0.00 96 1017.1
20260906105856 12 34 14.5 17.7 0.00 0.00 0.00 96 1017.1
20260906105352 12 6 14.5 20.9 0.00 0.00 0.00 96 1017.1
20260906104848 12 50 12.9 12.9 0.00 0.00 0.00 96 1016.9
20260906104346 12 17 16.1 17.7 0.00 0.00 0.00 96 1016.8
20260906103845 12 13 19.3 22.5 0.00 0.00 0.00 96 1017.0
20260906103343 12 19 16.1 24.1 0.00 0.00 0.00 96 1017.0
20260906102840 12 29 19.3 22.5 0.00 0.00 0.00 96 1017.3
20260906102338 12 21 16.1 22.5 0.00 0.00 0.00 96 1017.1
20260906101834 12 2 17.7 22.5 0.00 0.00 0.00 96 1017.1
20260906101329 12 19 20.9 25.7 0.00 0.00 0.00 96 1017.0
20260906100825 12 355 17.7 24.1 0.00 0.00 0.00 96 1017.1
20260906100323 12 351 17.7 24.1 0.00 0.00 0.00 96 1017.0
20260906095819 12 324 24.1 27.4 0.00 0.00 0.00 96 1016.8
20260906095314 12 14 22.5 25.7 0.00 0.00 0.00 96 1017.0
20260906094813 12 1 19.3 24.1 0.00 0.00 0.00 96 1016.9
20260906094308 12 326 20.9 25.7 0.00 0.00 0.00 96 1016.9
20260906093805 12 31 19.3 24.1 0.00 0.00 0.00 97 1017.2
20260906093300 12 1 22.5 25.7 0.00 0.00 0.00 97 1017.2
20260906092756 12 354 19.3 25.7 0.00 0.00 0.00 97 1017.2
20260906092255 12 7 22.5 25.7 0.00 0.00 0.00 97 1017.4
20260906091751 12 354 19.3 24.1 0.00 0.00 0.00 97 1017.4
20260906091247 12 312 24.1 33.8 0.00 0.00 0.00 97 1017.7
20260906090744 12 349 25.7 27.4 0.00 0.00 0.00 97 1017.4
20260906090242 12 342 22.5 27.4 0.00 0.00 0.00 97 1017.6
20260906085742 12 345 24.1 32.2 0.00 0.00 0.00 96 1017.6
20260906085241 12 7 22.5 25.7 0.00 0.00 0.00 96 1017.7
20260906084736 12 336 19.3 24.1 0.00 0.00 0.00 96 1017.8
20260906084236 12 346 20.9 25.7 0.00 0.00 0.00 96 1017.6
20260906083731 12 24 22.5 25.7 0.00 0.00 0.00 96 1017.6
20260906083226 12 351 19.3 24.1 0.00 0.00 0.00 96 1017.9
20260906082722 12 336 20.9 25.7 0.00 0.00 0.00 96 1017.8
20260906082216 12 26 20.9 29.0 0.00 0.00 0.00 95 1018.0
20260906081713 12 6 19.3 24.1 0.00 0.00 0.00 95 1017.8
20260906081207 12 18 24.1 29.0 0.00 0.00 0.00 95 1018.0
20260906080704 12 10 19.3 22.5 0.00 0.00 0.00 94 1017.7
20260906080200 12 340 22.5 32.2 0.00 0.00 0.00 94 1017.6
20260906075659 12 340 24.1 27.4 0.00 0.00 0.00 94 1017.9
20260906075154 12 20 22.5 24.1 0.00 0.00 0.00 94 1017.8
20260906074650 12 40 19.3 25.7 0.00 0.00 0.00 93 1017.4
20260906074148 12 15 20.9 27.4 0.00 0.00 0.00 93 1018.1
20260906073643 12 30 20.9 24.1 0.00 0.00 0.00 93 1017.9
20260906073139 12 13 20.9 25.7 0.00 0.00 0.00 92 1018.1
20260906072634 12 8 24.1 29.0 0.00 0.00 0.00 92 1018.0
20260906072130 12 16 27.4 37.0 0.00 0.00 0.00 91 1018.1
20260906071627 13 0 25.7 35.4 0.00 0.00 0.00 91 1018.2
20260906071126 13 13 22.5 25.7 0.00 0.00 0.00 91 1018.2
20260906070623 13 347 27.4 33.8 0.00 0.00 0.00 90 1018.3
20260906070118 13 46 20.9 25.7 0.00 0.00 0.00 90 1018.4
20260906065618 13 10 22.5 25.7 0.00 0.00 0.00 90 1018.3
20260906065114 13 44 20.9 24.1 0.00 0.00 0.00 90 1018.7
20260906064609 13 355 19.3 22.5 0.00 0.00 0.00 90 1018.7
20260906064104 13 25 20.9 27.4 0.00 0.00 0.00 90 1018.7
20260906063554 13 13 20.9 24.1 0.00 0.00 0.00 91 1018.5
20260906063050 13 3 24.1 27.4 0.00 0.00 0.00 91 1018.3
20260906062545 13 327 24.1 29.0 0.00 0.00 0.00 90 1018.5
20260906062044 13 306 22.5 24.1 0.00 0.00 0.00 91 1018.7
20260906061540 13 328 14.5 17.7 0.00 0.00 0.00 90 1018.7
20260906061039 13 346 22.5 27.4 0.00 0.00 0.00 90 1018.4
20260906060536 13 12 19.3 24.1 0.00 0.00 0.00 89 1018.7
20260906060033 13 319 19.3 24.1 0.00 0.30 0.30 90 1018.5
20260906055529 13 12 24.1 27.4 0.00 0.30 0.30 90 1018.8
20260906055024 13 355 22.5 29.0 0.00 0.30 0.30 90 1018.5
20260906054524 13 338 17.7 27.4 0.00 0.30 0.30 90 1018.4
20260906054019 13 343 20.9 24.1 0.00 0.30 0.30 90 1018.5
20260906053515 13 17 22.5 25.7 0.00 0.30 0.30 90 1018.5
20260906053011 13 11 17.7 22.5 0.00 0.30 0.30 89 1018.3
20260906052506 13 26 24.1 33.8 0.00 0.30 0.30 89 1018.4
20260906052003 13 10 25.7 29.0 0.00 0.30 0.30 89 1018.3
20260906051458 13 21 19.3 24.1 0.00 0.30 0.30 90 1018.5
20260906050955 13 11 27.4 32.2 0.00 0.30 0.30 89 1018.4
20260906050454 13 333 22.5 27.4 0.00 0.30 0.30 88 1019.4
20260906045953 13 341 16.1 16.1 0.00 0.30 0.30 89 1019.3
20260906045452 13 349 20.9 24.1 0.00 0.30 0.30 89 1018.9
20260906044948 13 344 17.7 27.4 0.00 0.30 0.30 89 1018.4
20260906044443 13 323 22.5 25.7 0.00 0.30 0.30 90 1018.2
20260906043939 13 1 19.3 24.1 0.00 0.30 0.30 90 1018.0
20260906043434 13 320 20.9 25.7 0.00 0.30 0.30 90 1018.0
20260906042930 13 0 20.9 24.1 0.00 0.30 0.30 89 1017.9
20260906042429 13 343 17.7 22.5 0.00 0.30 0.30 89 1017.7
20260906041925 13 341 22.5 32.2 0.00 0.30 0.30 88 1017.8
20260906041421 13 12 22.5 27.4 0.00 0.30 0.30 88 1018.1
20260906040920 13 21 22.5 27.4 0.00 0.30 0.30 88 1018.0
20260906040415 13 337 25.7 29.0 0.00 0.30 0.30 87 1017.8
20260906035911 13 347 25.7 32.2 0.18 0.30 0.30 87 1017.7
20260906035406 13 5 29.0 33.8 0.97 0.30 0.30 86 1018.0
20260906034901 13 9 24.1 32.2 1.37 0.28 0.28 87 1018.1
20260906034355 13 314 25.7 35.4 0.97 0.20 0.20 87 1018.3
20260906033851 15 22 24.1 29.0 0.00 0.05 0.05 74 1018.8
20260906033351 15 318 20.9 27.4 0.00 0.05 0.05 74 1019.8
20260906032847 15 338 22.5 25.7 0.00 0.05 0.05 74 1018.4
20260906032343 15 318 22.5 27.4 0.00 0.05 0.05 74 1017.7
20260906031838 15 13 22.5 27.4 0.00 0.05 0.05 74 1017.3
20260906031333 15 327 22.5 25.7 0.00 0.05 0.05 74 1017.3
20260906030833 15 351 27.4 32.2 0.00 0.05 0.05 74 1017.1
20260906030329 15 3 22.5 27.4 0.00 0.05 0.05 74 1017.2
20260906025829 15 1 20.9 25.7 0.00 0.05 0.05 74 1017.3
20260906025322 15 350 24.1 27.4 0.00 0.05 0.05 74 1017.0
20260906024822 15 12 24.1 29.0 0.00 0.05 0.05 73 1017.0
20260906024321 15 19 27.4 33.8 0.00 0.05 0.05 73 1017.0
20260906023817 15 12 19.3 24.1 0.00 0.05 0.05 72 1016.8
20260906023312 15 13 27.4 33.8 0.00 0.05 0.05 72 1017.0
20260906022808 15 15 19.3 25.7 0.00 0.05 0.05 71 1016.7
20260906022306 15 6 25.7 27.4 0.00 0.05 0.05 71 1016.8
20260906021758 15 9 24.1 27.4 0.00 0.05 0.05 70 1016.8
20260906021257 15 21 19.3 22.5 0.00 0.05 0.05 70 1016.8
20260906020752 15 32 22.5 25.7 0.00 0.05 0.05 69 1016.8
20260906020252 15 5 24.1 33.8 0.00 0.05 0.05 69 1016.9
20260906015752 15 16 19.3 29.0 0.00 0.05 0.05 69 1016.9
20260906015251 15 17 17.7 25.7 0.00 0.05 0.05 69 1016.9
20260906014746 16 23 22.5 29.0 0.00 0.05 0.05 68 1016.9
20260906014241 16 27 24.1 25.7 0.00 0.05 0.05 68 1016.8
20260906013737 16 20 19.3 22.5 0.00 0.05 0.05 67 1017.0
20260906013237 16 6 22.5 27.4 0.00 0.05 0.05 66 1016.9
20260906012732 16 11 22.5 25.7 0.00 0.05 0.05 67 1016.9
20260906012227 16 21 20.9 25.7 0.00 0.05 0.05 66 1016.8
20260906011723 16 358 27.4 32.2 0.00 0.05 0.05 66 1016.5
20260906011217 17 22 19.3 24.1 0.00 0.05 0.05 65 1016.7
20260906010713 17 24 20.9 25.7 0.00 0.05 0.05 64 1016.7
20260906010209 17 27 24.1 32.2 0.00 0.05 0.05 63 1016.3
20260906005708 17 16 24.1 27.4 0.00 0.05 0.05 62 1016.7
20260906005203 18 355 20.9 27.4 0.00 0.05 0.05 60 1016.7
20260906004702 18 346 24.1 27.4 0.00 0.05 0.05 59 1016.5
20260906004156 18 353 17.7 20.9 0.00 0.05 0.05 60 1016.7
20260906003652 18 357 25.7 27.4 0.00 0.05 0.05 59 1016.5
20260906003147 19 333 27.4 35.4 0.00 0.05 0.05 57 1016.6
20260906002642 19 344 19.3 22.5 0.00 0.05 0.05 58 1016.6
20260906002136 19 9 22.5 25.7 0.00 0.05 0.05 56 1016.5
20260906001632 19 6 24.1 29.0 0.00 0.05 0.05 57 1016.5
20260906001131 20 17 20.9 24.1 0.00 0.05 0.05 56 1016.9
20260906000627 20 343 20.9 25.7 0.00 0.05 0.05 55 1016.9
20260906000123 20 29 25.7 32.2 0.00 0.05 0.05 55 1017.1
20260905235621 19 351 14.5 17.7 0.00 0.05 0.05 57 1016.9
20260905235117 20 34 24.1 27.4 0.00 0.05 0.05 56 1016.9
20260905234612 20 6 22.5 27.4 0.00 0.05 0.05 56 1017.0
20260905234108 20 15 17.7 24.1 0.00 0.05 0.05 55 1017.1
20260905233608 20 1 19.3 22.5 0.00 0.05 0.05 55 1017.0
20260905233102 20 5 14.5 16.1 0.00 0.05 0.05 54 1016.9
20260905232557 20 342 22.5 24.1 0.00 0.05 0.05 54 1016.9
20260905232053 20 4 17.7 25.7 0.00 0.05 0.05 54 1016.8
20260905231548 20 32 17.7 22.5 0.00 0.05 0.05 54 1016.8
20260905231044 21 21 20.9 24.1 0.00 0.05 0.05 52 1016.7
20260905230544 20 36 22.5 25.7 0.00 0.05 0.05 53 1016.5
20260905230042 21 33 20.9 24.1 0.00 0.05 0.05 51 1016.8